owner,sensor,date,latitude,longitude,vertical_datum,wind_speed,wind_to_direction,wind_speed_of_gust,qcFlag 
TABS,ioos:station:wmo:42045:1,2017-09-01T00:00:00Z,26.2168,-96.4998,4.0,6.248279763,191.1662482,7.45,'11111222,11111222,11111222' 
TABS,ioos:station:wmo:42045:1,2017-09-01T00:30:00Z,26.2168,-96.4998,4.0,5.804015851,187.8231563,6.67,'11111222,11111222,11111222' 
TABS,ioos:station:wmo:42045:1,2017-09-01T01:00:00Z,26.2168,-96.4998,4.0,6.2352947,188.2992303,7.36,'11111222,11111222,11111222' 
TABS,ioos:station:wmo:42045:1,2017-09-01T01:30:00Z,26.2168,-96.4998,4.0,6.174285384,190.5457345,7.34,'11111222,11111222,11111222' 
TABS,ioos:station:wmo:42045:1,2017-09-01T02:00:00Z,26.2168,-96.4998,4.0,6.990457782,188.1418851,8.67,'11111222,11111222,11111222' 
TABS,ioos:station:wmo:42045:1,2017-09-01T02:30:00Z,26.2168,-96.4998,4.0,7.542870806,189.0004589,8.83,'11111222,11111222,11111222' 
TABS,ioos:station:wmo:42045:1,2017-09-01T03:00:00Z,26.2168,-96.4998,4.0,7.010599118,188.6966434,8.19,'11111222,11111222,11111222' 
TABS,ioos:station:wmo:42045:1,2017-09-01T03:30:00Z,26.2168,-96.4998,4.0,6.879047899,190.2156365,8.43,'11111222,11111222,11111222' 
TABS,ioos:station:wmo:42045:1,2017-09-01T04:00:00Z,26.2168,-96.4998,4.0,6.244693747,191.9219186,7.42,'11111222,11111222,11111222' 
TABS,ioos:station:wmo:42045:1,2017-09-01T04:30:00Z,26.2168,-96.4998,4.0,6.435666244,196.5203407,7.46,'11111222,11111222,11111222' 
TABS,ioos:station:wmo:42045:1,2017-09-01T05:00:00Z,26.2168,-96.4998,4.0,6.192939528,195.0686634,7.58,'11111222,11111222,11111222' 
TABS,ioos:station:wmo:42045:1,2017-09-01T05:30:00Z,26.2168,-96.4998,4.0,5.631074498,200.0441213,6.72,'11111222,11111222,11111222' 
TABS,ioos:station:wmo:42045:1,2017-09-01T06:00:00Z,26.2168,-96.4998,4.0,5.006845314,197.3132349,6.02,'11111222,11111222,11111222' 
TABS,ioos:station:wmo:42045:1,2017-09-01T06:30:00Z,26.2168,-96.4998,4.0,4.628271816,195.0272847,5.46,'11111222,11111222,11111222' 
TABS,ioos:station:wmo:42045:1,2017-09-01T07:00:00Z,26.2168,-96.4998,4.0,4.13591586,192.9947969,4.8,'11111222,11111222,11111222' 
TABS,ioos:station:wmo:42045:1,2017-09-01T07:30:00Z,26.2168,-96.4998,4.0,4.147734321,194.8070178,5.25,'11111222,11111222,11111222' 
TABS,ioos:station:wmo:42045:1,2017-09-01T08:00:00Z,26.2168,-96.4998,4.0,4.037672597,189.6957977,4.72,'11111222,11111222,11111222' 
TABS,ioos:station:wmo:42045:1,2017-09-01T08:30:00Z,26.2168,-96.4998,4.0,4.183359894,190.7460426,5.11,'11111222,11111222,11111222' 
TABS,ioos:station:wmo:42045:1,2017-09-01T09:00:00Z,26.2168,-96.4998,4.0,3.620055248,179.6836632,4.32,'11111222,11111222,11111222' 
TABS,ioos:station:wmo:42045:1,2017-09-01T09:30:00Z,26.2168,-96.4998,4.0,2.984845055,176.7352057,3.66,'11111222,11111222,11111222' 
TABS,ioos:station:wmo:42045:1,2017-09-01T10:00:00Z,26.2168,-96.4998,4.0,2.661202736,181.7228685,3.2,'11111222,11111222,11111222' 
TABS,ioos:station:wmo:42045:1,2017-09-01T10:30:00Z,26.2168,-96.4998,4.0,3.025359483,183.4111474,3.83,'11111222,11111222,11111222' 
TABS,ioos:station:wmo:42045:1,2017-09-01T11:00:00Z,26.2168,-96.4998,4.0,3.175106297,176.7503198,4.0,'11111222,11111222,11111222' 
TABS,ioos:station:wmo:42045:1,2017-09-01T11:30:00Z,26.2168,-96.4998,4.0,2.303258561,152.8789705,2.87,'11111222,11111222,11111222' 
TABS,ioos:station:wmo:42045:1,2017-09-01T12:00:00Z,26.2168,-96.4998,4.0,2.88586209,133.5962918,3.53,'11111222,11111222,11111222' 
TABS,ioos:station:wmo:42045:1,2017-09-01T12:30:00Z,26.2168,-96.4998,4.0,3.167412193,138.7122808,3.8,'11111222,11111222,11111222' 
TABS,ioos:station:wmo:42045:1,2017-09-01T13:00:00Z,26.2168,-96.4998,4.0,3.135171447,154.0890663,3.83,'11111222,11111222,11111222' 
TABS,ioos:station:wmo:42045:1,2017-09-01T13:30:00Z,26.2168,-96.4998,4.0,3.258972231,158.3947337,3.87,'11111222,11111222,11111222' 
TABS,ioos:station:wmo:42045:1,2017-09-01T14:00:00Z,26.2168,-96.4998,4.0,2.842006334,155.6897911,3.43,'11111222,11111222,11111222' 
TABS,ioos:station:wmo:42045:1,2017-09-01T14:30:00Z,26.2168,-96.4998,4.0,2.94893201,151.4363365,3.75,'11111222,11111222,11111222' 
TABS,ioos:station:wmo:42045:1,2017-09-01T15:00:00Z,26.2168,-96.4998,4.0,2.786000718,135.0003157,3.27,'11111222,11111222,11111222' 
TABS,ioos:station:wmo:42045:1,2017-09-01T15:30:00Z,26.2168,-96.4998,4.0,3.012042496,123.9014424,3.78,'11111222,11111222,11111222' 
TABS,ioos:station:wmo:42045:1,2017-09-01T16:00:00Z,26.2168,-96.4998,4.0,3.570952254,134.6599495,4.32,'11111222,11111222,11111222' 
TABS,ioos:station:wmo:42045:1,2017-09-01T16:30:00Z,26.2168,-96.4998,4.0,4.079325925,128.3311092,4.85,'11111222,11111222,11111222' 
TABS,ioos:station:wmo:42045:1,2017-09-01T17:00:00Z,26.2168,-96.4998,4.0,4.329260907,129.0941884,5.38,'11111222,11111222,11111222' 
TABS,ioos:station:wmo:42045:1,2017-09-01T17:30:00Z,26.2168,-96.4998,4.0,4.464258057,126.2541739,5.5,'11111222,11111222,11111222' 
TABS,ioos:station:wmo:42045:1,2017-09-01T18:00:00Z,26.2168,-96.4998,4.0,4.747473012,136.9634813,6.15,'11111222,11111222,11111222' 
TABS,ioos:station:wmo:42045:1,2017-09-01T18:30:00Z,26.2168,-96.4998,4.0,5.618941181,138.6800877,6.77,'11111222,11111222,11111222' 
TABS,ioos:station:wmo:42045:1,2017-09-01T19:00:00Z,26.2168,-96.4998,4.0,5.15,143.130399,6.29,'11111222,11111222,11111222' 
TABS,ioos:station:wmo:42045:1,2017-09-01T19:30:00Z,26.2168,-96.4998,4.0,5.69779782,145.2224604,6.72,'11111222,11111222,11111222' 
TABS,ioos:station:wmo:42045:1,2017-09-01T20:00:00Z,26.2168,-96.4998,4.0,5.443013871,138.8737964,6.56,'11111222,11111222,11111222' 
TABS,ioos:station:wmo:42045:1,2017-09-01T20:30:00Z,26.2168,-96.4998,4.0,4.80416486,140.7444606,5.83,'11111222,11111222,11111222' 
TABS,ioos:station:wmo:42045:1,2017-09-01T21:00:00Z,26.2168,-96.4998,4.0,4.526510798,142.2696366,5.6,'11111222,11111222,11111222' 
TABS,ioos:station:wmo:42045:1,2017-09-01T21:30:00Z,26.2168,-96.4998,4.0,4.741750732,137.3933681,5.57,'11111222,11111222,11111222' 
TABS,ioos:station:wmo:42045:1,2017-09-01T22:00:00Z,26.2168,-96.4998,4.0,4.995447928,153.7429838,6.36,'11111222,11111222,11111222' 
TABS,ioos:station:wmo:42045:1,2017-09-01T22:30:00Z,26.2168,-96.4998,4.0,4.858312464,162.7587914,5.87,'11111222,11111222,11111222' 
TABS,ioos:station:wmo:42045:1,2017-09-01T23:00:00Z,26.2168,-96.4998,4.0,5.305101319,169.1351046,6.55,'11111222,11111222,11111222' 
TABS,ioos:station:wmo:42045:1,2017-09-01T23:30:00Z,26.2168,-96.4998,4.0,4.814530091,165.4444566,5.79,'11111222,11111222,11111222' 
TABS,ioos:station:wmo:42045:1,2017-09-02T00:00:00Z,26.2168,-96.4998,4.0,6.577089022,195.431023,7.95,'11111222,11111222,11111222' 
TABS,ioos:station:wmo:42045:1,2017-09-02T00:30:00Z,26.2168,-96.4998,4.0,5.302716285,195.0847148,6.41,'11111222,11111222,11111222' 
TABS,ioos:station:wmo:42045:1,2017-09-02T01:00:00Z,26.2168,-96.4998,4.0,3.338038346,196.5350097,4.74,'11111222,11111222,11111222' 
TABS,ioos:station:wmo:42045:1,2017-09-02T01:30:00Z,26.2168,-96.4998,4.0,2.592951986,169.5570408,3.12,'11111222,11111222,11111222' 
TABS,ioos:station:wmo:42045:1,2017-09-02T02:00:00Z,26.2168,-96.4998,4.0,3.293706119,165.5842846,4.15,'11111222,11111222,11111222' 
TABS,ioos:station:wmo:42045:1,2017-09-02T02:30:00Z,26.2168,-96.4998,4.0,2.571575393,145.1360417,3.46,'11111222,11111222,11111222' 
TABS,ioos:station:wmo:42045:1,2017-09-02T03:00:00Z,26.2168,-96.4998,4.0,2.70495841,128.3954956,3.35,'11111222,11111222,11111222' 
TABS,ioos:station:wmo:42045:1,2017-09-02T03:30:00Z,26.2168,-96.4998,4.0,4.065907033,138.3901736,4.92,'11111222,11111222,11111222' 
TABS,ioos:station:wmo:42045:1,2017-09-02T04:00:00Z,26.2168,-96.4998,4.0,4.362957712,149.2617439,5.39,'11111222,11111222,11111222' 
TABS,ioos:station:wmo:42045:1,2017-09-02T04:30:00Z,26.2168,-96.4998,4.0,3.74423557,146.4375452,4.72,'11111222,11111222,11111222' 
TABS,ioos:station:wmo:42045:1,2017-09-02T05:00:00Z,26.2168,-96.4998,4.0,4.366062299,150.4995548,5.55,'11111222,11111222,11111222' 
TABS,ioos:station:wmo:42045:1,2017-09-02T05:30:00Z,26.2168,-96.4998,4.0,4.768228182,139.7639462,6.14,'11111222,11111222,11111222' 
TABS,ioos:station:wmo:42045:1,2017-09-02T06:00:00Z,26.2168,-96.4998,4.0,4.975550221,139.9735718,5.93,'11111222,11111222,11111222' 
TABS,ioos:station:wmo:42045:1,2017-09-02T06:30:00Z,26.2168,-96.4998,4.0,4.711199423,151.7489421,5.92,'11111222,11111222,11111222' 
TABS,ioos:station:wmo:42045:1,2017-09-02T07:00:00Z,26.2168,-96.4998,4.0,5.19350556,156.1497923,6.25,'11111222,11111222,11111222' 
TABS,ioos:station:wmo:42045:1,2017-09-02T07:30:00Z,26.2168,-96.4998,4.0,5.140787877,156.3772698,6.53,'11111222,11111222,11111222' 
TABS,ioos:station:wmo:42045:1,2017-09-02T08:00:00Z,26.2168,-96.4998,4.0,5.558246126,156.5715724,6.74,'11111222,11111222,11111222' 
TABS,ioos:station:wmo:42045:1,2017-09-02T08:30:00Z,26.2168,-96.4998,4.0,5.36620909,155.6800232,6.45,'11111222,11111222,11111222' 
TABS,ioos:station:wmo:42045:1,2017-09-02T09:00:00Z,26.2168,-96.4998,4.0,5.520470994,165.3095086,6.97,'11111222,11111222,11111222' 
TABS,ioos:station:wmo:42045:1,2017-09-02T09:30:00Z,26.2168,-96.4998,4.0,5.636328592,160.4079744,6.73,'11111222,11111222,11111222' 
TABS,ioos:station:wmo:42045:1,2017-09-02T10:00:00Z,26.2168,-96.4998,4.0,5.351009251,165.0550337,6.74,'11111222,11111222,11111222' 
TABS,ioos:station:wmo:42045:1,2017-09-02T10:30:00Z,26.2168,-96.4998,4.0,5.009770454,164.6046972,6.27,'11111222,11111222,11111222' 
TABS,ioos:station:wmo:42045:1,2017-09-02T11:00:00Z,26.2168,-96.4998,4.0,5.151359044,161.6708215,6.41,'11111222,11111222,11111222' 
TABS,ioos:station:wmo:42045:1,2017-09-02T11:30:00Z,26.2168,-96.4998,4.0,4.783272938,168.666813,5.79,'11111222,11111222,11111222' 
TABS,ioos:station:wmo:42045:1,2017-09-02T12:00:00Z,26.2168,-96.4998,4.0,4.184268156,173.8263704,5.1,'11111222,11111222,11111222' 
TABS,ioos:station:wmo:42045:1,2017-09-02T12:30:00Z,26.2168,-96.4998,4.0,3.776307721,165.7432084,4.59,'11111222,11111222,11111222' 
TABS,ioos:station:wmo:42045:1,2017-09-02T13:00:00Z,26.2168,-96.4998,4.0,4.139480644,176.121695,5.24,'11111222,11111222,11111222' 
TABS,ioos:station:wmo:42045:1,2017-09-02T13:30:00Z,26.2168,-96.4998,4.0,4.122438599,175.5482171,5.19,'11111222,11111222,11111222' 
TABS,ioos:station:wmo:42045:1,2017-09-02T14:00:00Z,26.2168,-96.4998,4.0,3.760332432,179.2383452,4.71,'11111222,11111222,11111222' 
TABS,ioos:station:wmo:42045:1,2017-09-02T14:30:00Z,26.2168,-96.4998,4.0,3.561699033,181.7700184,4.54,'11111222,11111222,11111222' 
TABS,ioos:station:wmo:42045:1,2017-09-02T15:00:00Z,26.2168,-96.4998,4.0,2.975113443,191.045735,3.63,'11111222,11111222,11111222' 
TABS,ioos:station:wmo:42045:1,2017-09-02T15:30:00Z,26.2168,-96.4998,4.0,2.342327902,185.8811676,3.21,'11111222,11111222,11111222' 
TABS,ioos:station:wmo:42045:1,2017-09-02T16:00:00Z,26.2168,-96.4998,4.0,1.112205017,183.6086709,1.71,'11111222,11111222,11111222' 
TABS,ioos:station:wmo:42045:1,2017-09-02T16:30:00Z,26.2168,-96.4998,4.0,1.670478973,181.3722989,2.31,'11111222,11111222,11111222' 
TABS,ioos:station:wmo:42045:1,2017-09-02T17:00:00Z,26.2168,-96.4998,4.0,0.798811617,124.2872177,1.67,'11111222,11111222,11111222' 
TABS,ioos:station:wmo:42045:1,2017-09-02T17:30:00Z,26.2168,-96.4998,4.0,1.424675402,113.1461502,2.27,'11111222,11111222,11111222' 
TABS,ioos:station:wmo:42045:1,2017-09-02T18:00:00Z,26.2168,-96.4998,4.0,1.67871975,98.56491953,2.43,'11111222,11111222,11111222' 
TABS,ioos:station:wmo:42045:1,2017-09-02T18:30:00Z,26.2168,-96.4998,4.0,1.598405455,100.8182292,2.58,'11111222,11111222,11111222' 
TABS,ioos:station:wmo:42045:1,2017-09-02T19:00:00Z,26.2168,-96.4998,4.0,1.958698548,97.92366167,2.82,'11111222,11111222,11111222' 
TABS,ioos:station:wmo:42045:1,2017-09-02T19:30:00Z,26.2168,-96.4998,4.0,2.378949348,98.94798475,3.24,'11111222,11111222,11111222' 
TABS,ioos:station:wmo:42045:1,2017-09-02T20:00:00Z,26.2168,-96.4998,4.0,2.318965287,104.995465,2.82,'11111222,11111222,11111222' 
TABS,ioos:station:wmo:42045:1,2017-09-02T20:30:00Z,26.2168,-96.4998,4.0,2.680783468,118.7643295,3.91,'11111222,11111222,11111222' 
TABS,ioos:station:wmo:42045:1,2017-09-02T21:00:00Z,26.2168,-96.4998,4.0,3.519801131,102.9706054,4.69,'11111222,11111222,11111222' 
TABS,ioos:station:wmo:42045:1,2017-09-02T21:30:00Z,26.2168,-96.4998,4.0,2.930017065,115.2535253,3.72,'11111222,11111222,11111222' 
TABS,ioos:station:wmo:42045:1,2017-09-02T22:00:00Z,26.2168,-96.4998,4.0,3.909884909,115.12349,4.81,'11111222,11111222,11111222' 
TABS,ioos:station:wmo:42045:1,2017-09-02T22:30:00Z,26.2168,-96.4998,4.0,4.24392507,110.6986298,5.38,'11111222,11111222,11111222' 
TABS,ioos:station:wmo:42045:1,2017-09-02T23:00:00Z,26.2168,-96.4998,4.0,3.630771268,120.4498925,4.42,'11111222,11111222,11111222' 
TABS,ioos:station:wmo:42045:1,2017-09-02T23:30:00Z,26.2168,-96.4998,4.0,3.769456194,108.2430601,4.7,'11111222,11111222,11111222' 
TABS,ioos:station:wmo:42045:1,2017-09-03T00:00:00Z,26.2168,-96.4998,4.0,4.010598459,124.1262602,4.99,'11111222,11111222,11111222' 
TABS,ioos:station:wmo:42045:1,2017-09-03T00:30:00Z,26.2168,-96.4998,4.0,4.104253891,128.7691486,5.23,'11111222,11111222,11111222' 
TABS,ioos:station:wmo:42045:1,2017-09-03T01:00:00Z,26.2168,-96.4998,4.0,4.031203294,118.2818579,4.69,'11111222,11111222,11111222' 
TABS,ioos:station:wmo:42045:1,2017-09-03T01:30:00Z,26.2168,-96.4998,4.0,4.836693085,135.3353741,5.71,'11111222,11111222,11111222' 
TABS,ioos:station:wmo:42045:1,2017-09-03T02:00:00Z,26.2168,-96.4998,4.0,5.611639689,137.2389803,7.01,'11111222,11111222,11111222' 
TABS,ioos:station:wmo:42045:1,2017-09-03T02:30:00Z,26.2168,-96.4998,4.0,5.49422424,134.9265762,7.02,'11111222,11111222,11111222' 
TABS,ioos:station:wmo:42045:1,2017-09-03T03:00:00Z,26.2168,-96.4998,4.0,5.942120834,133.3637425,7.15,'11111222,11111222,11111222' 
TABS,ioos:station:wmo:42045:1,2017-09-03T03:30:00Z,26.2168,-96.4998,4.0,5.915741712,137.1923803,7.11,'11111222,11111222,11111222' 
TABS,ioos:station:wmo:42045:1,2017-09-03T04:00:00Z,26.2168,-96.4998,4.0,6.095408108,134.6015125,7.32,'11111222,11111222,11111222' 
TABS,ioos:station:wmo:42045:1,2017-09-03T04:30:00Z,26.2168,-96.4998,4.0,6.544898777,132.9571214,8.11,'11111222,11111222,11111222' 
TABS,ioos:station:wmo:42045:1,2017-09-03T05:00:00Z,26.2168,-96.4998,4.0,6.25815468,142.72756,7.84,'11111222,11111222,11111222' 
TABS,ioos:station:wmo:42045:1,2017-09-03T05:30:00Z,26.2168,-96.4998,4.0,5.628587745,134.8563571,6.72,'11111222,11111222,11111222' 
TABS,ioos:station:wmo:42045:1,2017-09-03T06:00:00Z,26.2168,-96.4998,4.0,6.150943017,137.5699725,7.34,'11111222,11111222,11111222' 
TABS,ioos:station:wmo:42045:1,2017-09-03T06:30:00Z,26.2168,-96.4998,4.0,5.934323887,142.5317808,7.36,'11111222,11111222,11111222' 
TABS,ioos:station:wmo:42045:1,2017-09-03T07:00:00Z,26.2168,-96.4998,4.0,5.849187978,151.2881882,7.29,'11111222,11111222,11111222' 
TABS,ioos:station:wmo:42045:1,2017-09-03T07:30:00Z,26.2168,-96.4998,4.0,6.185539588,144.4087766,7.45,'11111222,11111222,11111222' 
TABS,ioos:station:wmo:42045:1,2017-09-03T08:00:00Z,26.2168,-96.4998,4.0,5.640567347,143.9430487,6.8,'11111222,11111222,11111222' 
TABS,ioos:station:wmo:42045:1,2017-09-03T08:30:00Z,26.2168,-96.4998,4.0,5.784678038,149.2233778,7.49,'11111222,11111222,11111222' 
TABS,ioos:station:wmo:42045:1,2017-09-03T09:00:00Z,26.2168,-96.4998,4.0,6.289053983,166.2954403,7.94,'11111222,11111222,11111222' 
TABS,ioos:station:wmo:42045:1,2017-09-03T09:30:00Z,26.2168,-96.4998,4.0,5.829107994,167.0129914,6.89,'11111222,11111222,11111222' 
TABS,ioos:station:wmo:42045:1,2017-09-03T10:00:00Z,26.2168,-96.4998,4.0,5.682508249,167.6026683,6.88,'11111222,11111222,11111222' 
TABS,ioos:station:wmo:42045:1,2017-09-03T10:30:00Z,26.2168,-96.4998,4.0,5.646281962,168.3519874,7.02,'11111222,11111222,11111222' 
TABS,ioos:station:wmo:42045:1,2017-09-03T11:00:00Z,26.2168,-96.4998,4.0,5.413353859,173.6366571,7.05,'11111222,11111222,11111222' 
TABS,ioos:station:wmo:42045:1,2017-09-03T11:30:00Z,26.2168,-96.4998,4.0,5.061906755,165.4698474,6.35,'11111222,11111222,11111222' 
TABS,ioos:station:wmo:42045:1,2017-09-03T12:00:00Z,26.2168,-96.4998,4.0,4.870030801,173.6340491,6.04,'11111222,11111222,11111222' 
TABS,ioos:station:wmo:42045:1,2017-09-03T12:30:00Z,26.2168,-96.4998,4.0,4.277394066,169.0843536,5.23,'11111222,11111222,11111222' 
TABS,ioos:station:wmo:42045:1,2017-09-03T13:00:00Z,26.2168,-96.4998,4.0,3.988546101,162.7919075,4.86,'11111222,11111222,11111222' 
TABS,ioos:station:wmo:42045:1,2017-09-03T13:30:00Z,26.2168,-96.4998,4.0,3.378002368,158.8287952,4.45,'11111222,11111222,11111222' 
TABS,ioos:station:wmo:42045:1,2017-09-03T14:00:00Z,26.2168,-96.4998,4.0,3.432156756,166.6928097,4.21,'11111222,11111222,11111222' 
TABS,ioos:station:wmo:42045:1,2017-09-03T14:30:00Z,26.2168,-96.4998,4.0,3.354176501,153.8171867,4.51,'11111222,11111222,11111222' 
TABS,ioos:station:wmo:42045:1,2017-09-03T15:00:00Z,26.2168,-96.4998,4.0,3.239320916,155.1757137,4.15,'11111222,11111222,11111222' 
TABS,ioos:station:wmo:42045:1,2017-09-03T15:30:00Z,26.2168,-96.4998,4.0,2.658439392,151.2178109,3.43,'11111222,11111222,11111222' 
TABS,ioos:station:wmo:42045:1,2017-09-03T16:00:00Z,26.2168,-96.4998,4.0,2.100119044,134.8074018,3.05,'11111222,11111222,11111222' 
TABS,ioos:station:wmo:42045:1,2017-09-03T16:30:00Z,26.2168,-96.4998,4.0,1.543502511,148.7818807,2.64,'11111222,11111222,11111222' 
TABS,ioos:station:wmo:42045:1,2017-09-03T17:00:00Z,26.2168,-96.4998,4.0,2.628649844,140.5575349,3.82,'11111222,11111222,11111222' 
TABS,ioos:station:wmo:42045:1,2017-09-03T17:30:00Z,26.2168,-96.4998,4.0,2.382960344,135.1703319,3.08,'11111222,11111222,11111222' 
TABS,ioos:station:wmo:42045:1,2017-09-03T18:00:00Z,26.2168,-96.4998,4.0,2.36292192,128.470795,3.46,'11111222,11111222,11111222' 
TABS,ioos:station:wmo:42045:1,2017-09-03T18:30:00Z,26.2168,-96.4998,4.0,4.062142292,126.390664,5.15,'11111222,11111222,11111222' 
TABS,ioos:station:wmo:42045:1,2017-09-03T19:00:00Z,26.2168,-96.4998,4.0,4.835204236,106.3364256,6.66,'11111222,11111222,11111222' 
TABS,ioos:station:wmo:42045:1,2017-09-03T19:30:00Z,26.2168,-96.4998,4.0,5.85956483,62.34129439,7.37,'11111222,11111222,11111222' 
TABS,ioos:station:wmo:42045:1,2017-09-03T20:00:00Z,26.2168,-96.4998,4.0,3.694319964,56.48164882,5.41,'11111222,11111222,11111222' 
TABS,ioos:station:wmo:42045:1,2017-09-03T20:30:00Z,26.2168,-96.4998,4.0,3.748826483,61.99908074,5.04,'11111222,11111222,11111222' 
TABS,ioos:station:wmo:42045:1,2017-09-03T21:00:00Z,26.2168,-96.4998,4.0,6.21181133,49.30833915,10.26,'11111222,11111222,11111222' 
TABS,ioos:station:wmo:42045:1,2017-09-03T21:30:00Z,26.2168,-96.4998,4.0,6.76498337,49.31570174,7.99,'11111222,11111222,11111222' 
TABS,ioos:station:wmo:42045:1,2017-09-03T22:00:00Z,26.2168,-96.4998,4.0,6.541758173,47.84971198,8.34,'11111222,11111222,11111222' 
TABS,ioos:station:wmo:42045:1,2017-09-03T22:30:00Z,26.2168,-96.4998,4.0,5.004328127,63.536995,6.37,'11111222,11111222,11111222' 
TABS,ioos:station:wmo:42045:1,2017-09-03T23:00:00Z,26.2168,-96.4998,4.0,5.846605853,81.34284523,7.21,'11111222,11111222,11111222' 
TABS,ioos:station:wmo:42045:1,2017-09-03T23:30:00Z,26.2168,-96.4998,4.0,6.7378409,94.17084769,8.47,'11111222,11111222,11111222' 
TABS,ioos:station:wmo:42045:1,2017-09-04T00:00:00Z,26.2168,-96.4998,4.0,6.666970826,120.065019,8.21,'11111222,11111222,11111222' 
TABS,ioos:station:wmo:42045:1,2017-09-04T00:30:00Z,26.2168,-96.4998,4.0,7.782608817,131.0408121,9.28,'11111222,11111222,11111222' 
TABS,ioos:station:wmo:42045:1,2017-09-04T01:00:00Z,26.2168,-96.4998,4.0,6.532419154,137.4198192,7.85,'11111222,11111222,11111222' 
TABS,ioos:station:wmo:42045:1,2017-09-04T01:30:00Z,26.2168,-96.4998,4.0,6.352015428,143.2566802,7.57,'11111222,11111222,11111222' 
TABS,ioos:station:wmo:42045:1,2017-09-04T02:00:00Z,26.2168,-96.4998,4.0,6.018679257,148.1059009,7.02,'11111222,11111222,11111222' 
TABS,ioos:station:wmo:42045:1,2017-09-04T02:30:00Z,26.2168,-96.4998,4.0,6.420280368,142.5949413,7.43,'11111222,11111222,11111222' 
TABS,ioos:station:wmo:42045:1,2017-09-04T03:00:00Z,26.2168,-96.4998,4.0,6.545242547,141.3268215,8.12,'11111222,11111222,11111222' 
TABS,ioos:station:wmo:42045:1,2017-09-04T03:30:00Z,26.2168,-96.4998,4.0,6.240392616,146.4375452,7.77,'11111222,11111222,11111222' 
TABS,ioos:station:wmo:42045:1,2017-09-04T04:00:00Z,26.2168,-96.4998,4.0,6.378722443,143.9927331,8.53,'11111222,11111222,11111222' 
TABS,ioos:station:wmo:42045:1,2017-09-04T04:30:00Z,26.2168,-96.4998,4.0,6.208413646,152.3620855,7.32,'11111222,11111222,11111222' 
TABS,ioos:station:wmo:42045:1,2017-09-04T05:00:00Z,26.2168,-96.4998,4.0,5.960134227,151.5432604,7.36,'11111222,11111222,11111222' 
TABS,ioos:station:wmo:42045:1,2017-09-04T05:30:00Z,26.2168,-96.4998,4.0,5.78260322,157.9596615,6.89,'11111222,11111222,11111222' 
TABS,ioos:station:wmo:42045:1,2017-09-04T06:00:00Z,26.2168,-96.4998,4.0,5.903897018,152.567172,6.93,'11111222,11111222,11111222' 
TABS,ioos:station:wmo:42045:1,2017-09-04T06:30:00Z,26.2168,-96.4998,4.0,5.704752405,161.5017841,6.7,'11111222,11111222,11111222' 
TABS,ioos:station:wmo:42045:1,2017-09-04T07:00:00Z,26.2168,-96.4998,4.0,5.594568795,159.4921594,7.71,'11111222,11111222,11111222' 
TABS,ioos:station:wmo:42045:1,2017-09-04T07:30:00Z,26.2168,-96.4998,4.0,4.86477132,160.2988973,5.89,'11111222,11111222,11111222' 
TABS,ioos:station:wmo:42045:1,2017-09-04T08:00:00Z,26.2168,-96.4998,4.0,5.415025392,151.3053732,6.87,'11111222,11111222,11111222' 
TABS,ioos:station:wmo:42045:1,2017-09-04T08:30:00Z,26.2168,-96.4998,4.0,5.040813426,152.4693703,6.06,'11111222,11111222,11111222' 
TABS,ioos:station:wmo:42045:1,2017-09-04T09:00:00Z,26.2168,-96.4998,4.0,4.028225416,168.6903044,5.09,'11111222,11111222,11111222' 
TABS,ioos:station:wmo:42045:1,2017-09-04T09:30:00Z,26.2168,-96.4998,4.0,4.472191856,153.7216972,5.53,'11111222,11111222,11111222' 
TABS,ioos:station:wmo:42045:1,2017-09-04T10:00:00Z,26.2168,-96.4998,4.0,4.497743879,157.6547726,5.06,'11111222,11111222,11111222' 
TABS,ioos:station:wmo:42045:1,2017-09-04T10:30:00Z,26.2168,-96.4998,4.0,4.10463153,164.7451274,5.05,'11111222,11111222,11111222' 
TABS,ioos:station:wmo:42045:1,2017-09-04T11:00:00Z,26.2168,-96.4998,4.0,4.385453226,124.5963374,5.4,'11111222,11111222,11111222' 
TABS,ioos:station:wmo:42045:1,2017-09-04T11:30:00Z,26.2168,-96.4998,4.0,3.939708111,125.1829866,5.79,'11111222,11111222,11111222' 
TABS,ioos:station:wmo:42045:1,2017-09-04T12:00:00Z,26.2168,-96.4998,4.0,5.105800623,135.7938334,6.99,'11111222,11111222,11111222' 
TABS,ioos:station:wmo:42045:1,2017-09-04T12:30:00Z,26.2168,-96.4998,4.0,4.466956458,151.0827152,6.06,'11111222,11111222,11111222' 
TABS,ioos:station:wmo:42045:1,2017-09-04T13:00:00Z,26.2168,-96.4998,4.0,4.897805631,152.3888419,6.09,'11111222,11111222,11111222' 
TABS,ioos:station:wmo:42045:1,2017-09-04T13:30:00Z,26.2168,-96.4998,4.0,3.812151623,163.2290259,4.99,'11111222,11111222,11111222' 
TABS,ioos:station:wmo:42045:1,2017-09-04T14:00:00Z,26.2168,-96.4998,4.0,4.791377672,164.6297602,5.82,'11111222,11111222,11111222' 
TABS,ioos:station:wmo:42045:1,2017-09-04T14:30:00Z,26.2168,-96.4998,4.0,4.205294282,154.9586826,5.21,'11111222,11111222,11111222' 
TABS,ioos:station:wmo:42045:1,2017-09-04T15:00:00Z,26.2168,-96.4998,4.0,5.936800485,186.3830181,11.13,'11111222,11111222,11111222' 
TABS,ioos:station:wmo:42045:1,2017-09-04T15:30:00Z,26.2168,-96.4998,4.0,1.908743042,170.04442,4.21,'11111222,11111222,11111222' 
TABS,ioos:station:wmo:42045:1,2017-09-04T16:00:00Z,26.2168,-96.4998,4.0,1.404635184,130.380403,2.99,'11111222,11111222,11111222' 
TABS,ioos:station:wmo:42045:1,2017-09-04T16:30:00Z,26.2168,-96.4998,4.0,1.246635472,166.0754698,2.56,'11111222,11111222,11111222' 
TABS,ioos:station:wmo:42045:1,2017-09-04T17:00:00Z,26.2168,-96.4998,4.0,0.518652099,160.866612,1.55,'11111222,11111222,11111222' 
TABS,ioos:station:wmo:42045:1,2017-09-04T17:30:00Z,26.2168,-96.4998,4.0,1.820027472,200.9246633,2.61,'11111222,11111222,11111222' 
TABS,ioos:station:wmo:42045:1,2017-09-04T18:00:00Z,26.2168,-96.4998,4.0,1.83806964,259.9739864,3.98,'11111222,11111222,11111222' 
TABS,ioos:station:wmo:42045:1,2017-09-04T18:30:00Z,26.2168,-96.4998,4.0,5.428489661,249.0610493,6.75,'11111222,11111222,11111222' 